Weather History for Galesburg, IL

Change the Weather History Date:

Sunday, May 4, 2014

  Actual Average Record
Temperature  
Mean Temperature 53 °F -  
Max Temperature 65 °F 68 °F 90 °F (1952)
Min Temperature 41 °F 47 °F 28 °F (2005)
Degree Days  
Heating Degree Days 12    
Growing Degree Days 3 (Base 50)    
Moisture  
Dew Point 40 °F    
Average Humidity 61    
Maximum Humidity 99    
Minimum Humidity 39    
Precipitation  
Precipitation 0.01 in - - ()
Sea Level Pressure  
Sea Level Pressure 29.98 in    
Wind  
Wind Speed 8 mph (NE)    
Max Wind Speed 20 mph    
Max Gust Speed 28 mph    
Visibility 10 miles    
Events      
Averages and records for this station are not official NWS values.
T = Trace of Precipitation, MM = Missing Value Source: NWS Daily Summary

Daily Weather History Graph

Daily Weather History Graph

Search for Another Location

Airport:

Trip Planner

Search our weather history database for the weather conditions in past years. The results will help you decide how hot, cold, wet, or windy it might be!

Date:

Astronomy

May. 04, 2014 Rise Set
Actual Time 5:56 AM CDT 8:01 PM CDT
Civil Twilight 5:26 AM CDT 8:31 PM CDT
Nautical Twilight 4:49 AM CDT 9:08 PM CDT
Astronomical Twilight 4:08 AM CDT 9:49 PM CDT
Moon 10:20 AM CDT (5/4) 12:06 AM CDT (5/4)
Length of Visible Light 15h 05m
Length of Day
14h 05m
Waxing Crescent, 28% of the Moon is Illuminated
May 4
Waxing Crescent
May 6
First Quarter
May 14
Full
May 21
Last Quarter
May 28
New

Hourly Weather History & Observations

Time (CDT) Temp. Windchill Dew Point Humidity Pressure Visibility Wind Dir Wind Speed Gust Speed Precip Events Conditions
12:15 AM 51.8 °F - 47.5 °F 85% 29.94 in 10.0 mi West 4.6 mph - N/A   Scattered Clouds
12:35 AM 52.7 °F - 47.7 °F 83% 29.95 in 10.0 mi NW 6.9 mph - N/A   Clear
12:55 AM 52.0 °F - 47.7 °F 85% 29.94 in 10.0 mi NW 5.8 mph - N/A   Clear
1:15 AM 51.3 °F - 47.1 °F 86% 29.95 in 10.0 mi NNW 6.9 mph - N/A   Clear
1:35 AM 50.5 °F - 46.6 °F 86% 29.95 in 10.0 mi NNW 6.9 mph - N/A   Clear
1:55 AM 48.9 °F - 45.9 °F 89% 29.94 in 10.0 mi North 6.9 mph - N/A   Clear
2:15 AM 48.6 °F - 46.2 °F 92% 29.94 in 10.0 mi North 6.9 mph - N/A   Clear
2:35 AM 47.1 °F - 45.1 °F 93% 29.94 in 10.0 mi North 6.9 mph - N/A   Clear
2:55 AM 47.7 °F - 44.8 °F 90% 29.93 in 10.0 mi Calm Calm - N/A   Clear
3:15 AM 46.9 °F - 45.3 °F 94% 29.93 in 10.0 mi Calm Calm - N/A   Clear
3:35 AM 47.7 °F - 45.1 °F 91% 29.94 in 10.0 mi Calm Calm - N/A   Clear
3:55 AM 45.7 °F - 45.0 °F 97% 29.95 in 10.0 mi Calm Calm - N/A   Clear
4:15 AM 43.9 °F 42.3 °F 42.8 °F 96% 29.96 in 10.0 mi NNW 3.5 mph - N/A   Clear
4:35 AM 43.3 °F - 42.3 °F 96% 29.96 in 10.0 mi Calm Calm - N/A   Clear
4:55 AM 42.6 °F - 42.3 °F 99% 29.98 in 10.0 mi Calm Calm - N/A   Clear
5:15 AM 42.3 °F 39.4 °F 42.1 °F 99% 29.98 in 10.0 mi North 4.6 mph - N/A   Clear
5:35 AM 41.9 °F 38.2 °F 41.0 °F 97% 29.98 in 10.0 mi North 5.8 mph - N/A   Clear
5:55 AM 42.6 °F 38.4 °F 41.2 °F 95% 29.99 in 10.0 mi North 6.9 mph - N/A   Clear
6:15 AM 42.3 °F 38.6 °F 41.2 °F 96% 29.99 in 10.0 mi North 5.8 mph - N/A   Clear
6:35 AM 45.3 °F 42.3 °F 42.3 °F 89% 30.01 in 10.0 mi NNW 5.8 mph - N/A   Clear
6:55 AM 46.6 °F - 42.3 °F 85% 30.01 in 10.0 mi North 4.6 mph - N/A   Clear
7:15 AM 48.6 °F - 42.1 °F 78% 30.02 in 10.0 mi North 6.9 mph - N/A   Clear
7:35 AM 49.1 °F - 41.7 °F 76% 30.03 in 10.0 mi North 5.8 mph - N/A   Clear
7:55 AM 50.7 °F - 42.3 °F 73% 30.04 in 10.0 mi NNE 9.2 mph - N/A   Clear
8:15 AM 53.2 °F - 41.5 °F 65% 30.05 in 10.0 mi North 10.4 mph - N/A   Clear
8:35 AM 52.3 °F - 38.8 °F 60% 30.01 in 10.0 mi NE 12.7 mph - N/A   Scattered Clouds
8:55 AM 53.6 °F - 40.3 °F 61% 30.03 in 10.0 mi NNE 10.4 mph - N/A   Scattered Clouds
9:15 AM 55.8 °F - 40.6 °F 57% 30.04 in 10.0 mi NNE 11.5 mph - N/A   Clear
9:35 AM 55.8 °F - 39.0 °F 53% 30.04 in 10.0 mi NE 9.2 mph - N/A   Clear
9:55 AM 56.5 °F - 38.7 °F 51% 30.04 in 10.0 mi NNE 11.5 mph 16.1 mph N/A   Clear
10:15 AM 56.8 °F - 37.9 °F 49% 30.05 in 10.0 mi NNE 9.2 mph - N/A   Clear
10:35 AM 58.3 °F - 39.2 °F 49% 30.05 in 10.0 mi NE 11.5 mph - N/A   Clear
10:55 AM 58.8 °F - 39.7 °F 49% 30.05 in 10.0 mi NE 12.7 mph 18.4 mph N/A   Clear
11:15 AM 58.6 °F - 39.4 °F 49% 30.06 in 10.0 mi NNE 9.2 mph 16.1 mph N/A   Clear
11:35 AM 59.9 °F - 40.6 °F 49% 30.07 in 10.0 mi NNE 10.4 mph - N/A   Clear
11:55 AM 60.8 °F - 40.3 °F 47% 30.06 in 10.0 mi NNE 13.8 mph 18.4 mph N/A   Clear
12:15 PM 60.8 °F - 40.5 °F 47% 30.03 in 10.0 mi NE 13.8 mph 18.4 mph N/A   Clear
12:35 PM 61.0 °F - 40.5 °F 47% 30.04 in 10.0 mi NE 15.0 mph - N/A   Clear
12:55 PM 60.8 °F - 40.1 °F 46% 30.03 in 10.0 mi NNE 15.0 mph 19.6 mph N/A   Clear
1:15 PM 61.0 °F - 41.0 °F 48% 30.02 in 10.0 mi East 10.4 mph - N/A   Clear
1:35 PM 62.8 °F - 40.8 °F 45% 30.01 in 10.0 mi NE 11.5 mph 18.4 mph N/A   Clear
1:55 PM 61.9 °F - 39.0 °F 43% 30.01 in 10.0 mi NE 9.2 mph - N/A   Clear
2:15 PM 63.3 °F - 41.0 °F 44% 29.99 in 10.0 mi ENE 11.5 mph - N/A   Clear
2:35 PM 63.0 °F - 40.6 °F 44% 29.99 in 10.0 mi ENE 10.4 mph 16.1 mph N/A   Clear
2:55 PM 63.7 °F - 41.5 °F 44% 29.98 in 10.0 mi NE 12.7 mph 16.1 mph N/A   Clear
3:15 PM 63.7 °F - 40.6 °F 43% 29.98 in 10.0 mi East 9.2 mph - N/A   Clear
3:35 PM 63.5 °F - 40.5 °F 43% 29.98 in 10.0 mi ENE 9.2 mph - N/A   Clear
3:55 PM 65.7 °F - 41.0 °F 41% 29.98 in 10.0 mi ENE 6.9 mph - N/A   Clear
4:15 PM 64.6 °F - 41.2 °F 42% 29.98 in 10.0 mi ENE 9.2 mph - N/A   Clear
4:35 PM 64.8 °F - 40.3 °F 41% 29.98 in 10.0 mi ENE 11.5 mph - N/A   Clear
4:55 PM 65.5 °F - 41.0 °F 41% 29.97 in 10.0 mi ENE 12.7 mph - N/A   Clear
5:15 PM 64.2 °F - 39.6 °F 40% 29.97 in 10.0 mi ENE 13.8 mph - N/A   Clear
5:35 PM 61.0 °F - 39.4 °F 45% 29.97 in 10.0 mi ENE 11.5 mph - N/A   Clear
5:55 PM 61.2 °F - 39.4 °F 45% 29.97 in 10.0 mi East 11.5 mph 16.1 mph N/A   Clear
6:15 PM 60.6 °F - 39.2 °F 45% 29.97 in 10.0 mi ENE 10.4 mph - N/A   Clear
6:35 PM 60.3 °F - 39.7 °F 47% 29.95 in 10.0 mi ENE 12.7 mph 16.1 mph N/A   Clear
6:55 PM 59.7 °F - 39.9 °F 48% 29.96 in 10.0 mi ENE 10.4 mph - N/A   Clear
7:15 PM 59.0 °F - 39.4 °F 48% 29.95 in 10.0 mi ENE 10.4 mph - N/A   Clear
7:35 PM 58.1 °F - 38.5 °F 48% 29.94 in 10.0 mi ENE 16.1 mph 20.7 mph N/A   Clear
7:55 PM 57.4 °F - 38.7 °F 50% 29.93 in 10.0 mi ENE 11.5 mph 16.1 mph N/A   Clear
8:15 PM 57.4 °F - 38.5 °F 49% 29.96 in 10.0 mi ENE 10.4 mph 18.4 mph N/A   Clear
8:35 PM 56.5 °F - 38.7 °F 51% 29.97 in 10.0 mi ENE 9.2 mph - N/A   Clear
8:55 PM 56.3 °F - 37.4 °F 49% 29.96 in 10.0 mi ENE 10.4 mph - N/A   Clear
9:15 PM 56.3 °F - 36.7 °F 48% 29.95 in 10.0 mi ENE 13.8 mph 17.3 mph N/A   Clear
9:35 PM 56.3 °F - 36.5 °F 47% 29.94 in 10.0 mi East 12.7 mph 23.0 mph N/A   Scattered Clouds
9:55 PM 55.4 °F - 36.7 °F 49% 29.96 in 10.0 mi East 15.0 mph 27.6 mph N/A   Clear
10:15 PM 54.1 °F - 35.8 °F 50% 29.96 in 10.0 mi East 17.3 mph 25.3 mph N/A   Clear
10:35 PM 52.7 °F - 29.1 °F 40% 29.96 in 10.0 mi East 19.6 mph 25.3 mph N/A   Clear
10:55 PM 51.8 °F - 28.4 °F 41% 29.98 in 10.0 mi East 16.1 mph 23.0 mph N/A   Clear
11:15 PM 51.8 °F - 27.7 °F 39% 29.98 in 10.0 mi East 18.4 mph 24.2 mph N/A   Clear
11:35 PM 51.4 °F - 27.0 °F 39% 29.97 in 10.0 mi East 17.3 mph 21.9 mph N/A   Clear
11:55 PM 51.1 °F - 26.6 °F 39% 29.94 in 10.0 mi East 16.1 mph 24.2 mph N/A   Clear